Wind_Speed
35 37 38 39 41 42 42 43 42 41 40 40 38 35 33 32 28 25 22 20 21 22 22 23 23 22 21 21 22 23 23 23 23 23 23 22 22 21 20 18 16 15 14
37 40 41 43 44 44 44 45 45 43 41 39 38 35 34 31 27 23 21 20 19 20 21 22 23 22 23 23 23 24 24 24 25 25 24 24 23 23 21 20 18 17 16
39 41 43 44 44 44 44 45 45 44 42 40 37 35 34 33 29 26 24 23 23 22 22 22 23 23 24 24 25 26 26 27 27 27 27 26 25 25 24 22 21 20 18
37 38 38 39 41 41 42 43 43 42 40 38 37 37 36 34 33 30 28 27 26 26 25 25 25 25 26 26 27 27 28 29 29 29 29 29 27 27 26 25 23 22 21
32 31 31 33 35 36 38 39 40 40 40 39 39 39 39 38 36 35 34 32 30 30 29 29 29 29 29 29 29 30 31 31 32 32 32 31 30 29 29 28 26 25 23
30 31 32 33 35 37 39 40 41 42 43 43 44 44 43 42 42 41 40 39 37 36 35 35 35 34 34 33 33 33 33 34 35 35 35 34 33 32 31 30 29 28 27
32 34 34 35 37 38 39 41 43 44 45 46 47 47 47 47 47 46 45 45 44 43 42 42 42 41 40 39 38 37 37 38 38 38 38 37 36 35 33 32 31 30 29
35 36 37 38 39 40 41 43 44 45 47 48 49 50 51 51 51 51 51 50 50 49 49 49 48 47 46 45 44 43 42 42 42 42 41 41 39 38 36 35 33 32 31
37 39 40 42 43 44 45 47 49 50 50 52 53 53 54 55 55 56 56 56 56 56 55 55 55 54 53 52 50 49 48 47 46 46 45 44 43 42 40 38 36 34 32
41 42 44 45 47 48 50 52 53 55 55 55 55 54 54 55 56 56 57 58 59 60 60 61 60 60 59 58 57 56 55 53 52 51 49 48 47 45 43 41 38 36 34
44 46 48 50 52 54 56 56 57 57 56 56 55 54 53 53 52 51 51 53 55 58 61 62 64 64 64 63 62 61 60 59 58 56 55 53 51 49 47 45 42 39 36
48 50 52 54 56 57 58 58 58 57 56 56 55 54 52 50 47 45 44 45 47 50 54 59 63 65 67 67 67 66 66 65 64 62 60 58 56 53 50 48 45 42 39
51 53 55 56 58 58 58 58 58 58 57 56 55 53 50 47 45 43 42 41 40 41 45 49 54 60 65 68 69 70 70 69 68 67 65 62 61 58 55 52 49 45 42
52 53 55 57 57 57 57 57 57 58 57 56 55 53 51 48 46 44 42 41 40 38 38 41 44 49 55 61 67 71 72 72 72 71 69 66 63 60 58 55 52 48 45
52 54 55 55 55 55 56 56 57 58 57 57 56 54 53 51 49 47 44 43 41 40 38 37 38 40 43 47 53 61 66 70 72 73 72 69 66 62 59 56 53 50 47
53 54 54 53 53 54 55 56 57 57 57 57 56 55 54 52 51 49 47 45 44 42 41 39 37 37 38 39 41 45 53 59 65 69 71 70 68 64 61 57 54 51 48
53 53 52 52 53 54 56 56 56 56 56 56 55 54 53 52 50 49 47 46 44 44 42 41 40 38 37 37 37 38 40 45 52 59 64 67 68 65 62 59 55 51 48
52 52 51 52 53 55 56 57 57 56 56 55 53 51 50 48 47 47 46 45 44 43 43 42 41 40 38 37 35 34 34 36 40 46 53 58 61 62 61 59 55 52 48
52 52 52 53 54 56 57 57 56 55 55 53 51 49 48 46 44 44 43 42 42 41 41 42 40 39 38 37 35 33 32 31 32 36 42 48 52 55 58 57 54 51 48
52 53 53 53 55 56 57 56 55 54 53 52 49 47 45 43 41 39 38 38 39 38 38 40 40 39 38 36 34 33 30 30 30 31 34 39 44 48 51 53 53 50 48
53 53 52 53 55 56 56 55 54 53 53 50 47 44 41 39 37 35 33 32 34 35 35 37 37 38 37 36 34 32 30 29 29 29 30 34 38 42 46 48 49 49 47
52 52 52 53 55 56 56 54 53 52 51 48 45 41 38 35 32 30 28 27 28 30 32 33 34 36 37 35 34 31 29 28 27 26 28 30 34 39 43 45 46 47 46
51 51 51 53 54 56 56 53 52 51 49 45 41 38 33 30 27 24 22 22 23 24 27 29 31 33 34 34 32 30 29 28 26 26 26 28 32 38 41 42 43 45 45
50 50 50 52 53 55 55 53 51 49 46 43 38 35 30 26 23 19 16 16 17 19 21 25 28 30 31 31 30 29 28 26 24 24 24 25 29 35 40 42 42 43 43
49 49 50 51 53 54 54 52 50 47 44 41 37 32 28 25 21 16 12 9 9 12 16 20 24 27 28 28 28 27 26 24 23 23 24 24 29 34 39 42 42 42 42
48 48 48 50 52 53 53 52 50 46 43 40 35 31 27 24 20 16 11 6 2 6 11 15 19 22 24 24 25 25 23 22 21 22 22 24 28 36 40 42 42 43 42
Wind_Direction
282 283 286 288 290 292 294 296 297 300 302 304 308 313 313 311 306 298 288 275 254 246 245 248 249 250 251 251 249 246 244 244 243 243 242 242 243 245 246 247 250 254 259
283 285 288 288 290 291 292 295 295 297 299 302 305 309 308 308 305 299 293 287 273 257 252 252 251 251 251 252 250 246 243 243 242 241 241 241 243 244 244 246 250 255 260
284 284 285 286 286 288 291 292 292 293 296 298 301 303 305 305 302 296 290 285 279 267 261 257 254 253 254 253 250 247 244 242 241 241 240 241 243 244 244 247 251 254 259
288 287 286 287 287 288 290 291 291 291 292 293 296 298 300 300 297 291 287 283 278 273 265 258 257 257 258 256 252 249 246 242 240 241 241 242 243 246 247 247 250 254 258
295 295 293 293 294 292 292 292 291 290 290 291 292 293 293 292 290 287 284 280 276 271 267 261 257 257 257 257 254 251 248 244 241 240 241 242 243 245 249 251 251 255 259
300 302 300 297 296 295 294 292 292 290 289 289 289 288 288 286 284 282 279 275 271 268 265 260 257 256 255 255 253 251 249 246 244 242 242 241 242 244 247 252 255 257 260
304 305 304 301 299 297 296 294 292 290 289 288 287 286 284 283 280 277 274 271 267 264 261 259 257 255 254 253 252 250 249 247 245 244 243 242 242 243 244 248 253 257 260
307 306 304 303 301 298 297 295 293 291 288 286 285 283 282 280 277 274 272 268 265 262 259 257 254 252 251 250 250 249 248 247 246 244 243 243 242 243 244 246 249 254 258
310 308 308 306 305 302 301 298 296 294 291 288 286 283 281 279 276 273 270 267 264 261 257 255 253 250 249 247 247 247 245 245 245 244 244 244 243 243 244 245 247 250 254
314 313 312 310 308 307 305 303 301 299 297 295 293 290 287 283 280 276 271 267 263 260 257 254 252 250 248 246 245 244 244 243 244 244 244 244 243 243 244 244 245 247 250
317 316 316 315 314 312 311 308 306 304 302 300 298 295 292 289 285 281 275 270 264 259 256 253 251 249 248 246 245 243 242 242 242 242 242 243 242 242 243 244 244 246 247
320 320 319 318 316 315 313 311 309 307 305 302 300 298 295 292 289 284 279 274 268 262 257 253 249 247 246 245 244 243 241 240 240 240 240 241 241 241 242 242 243 244 245
323 322 321 320 318 316 314 312 310 308 306 304 302 299 296 292 288 285 281 277 273 267 262 257 253 249 246 244 243 243 241 240 239 239 239 239 239 240 240 241 242 243 244
324 323 322 320 318 317 315 313 312 310 307 305 302 299 296 292 288 284 280 277 273 269 265 261 257 254 251 248 244 242 242 241 239 238 238 238 238 238 239 239 240 241 242
325 324 323 322 320 318 317 315 313 310 307 304 301 298 295 291 287 282 278 274 271 268 265 262 259 256 254 252 250 247 244 242 241 239 238 237 237 236 236 237 238 239 239
327 327 326 324 323 321 319 317 315 311 308 304 301 297 294 291 287 283 278 273 268 264 261 260 257 256 255 254 253 251 249 246 243 241 239 237 236 236 235 235 235 236 237
329 329 328 327 325 323 321 319 317 313 310 307 303 299 295 290 286 282 279 274 267 262 258 256 254 253 252 252 253 253 252 249 246 243 240 238 236 235 234 233 232 233 233
331 331 330 328 327 325 324 322 319 317 314 311 306 301 297 292 286 283 278 273 267 261 256 253 250 249 249 249 250 252 252 250 248 245 241 238 236 234 233 231 230 230 230
333 333 332 330 329 328 326 324 322 319 317 314 310 304 299 294 289 284 278 272 266 260 254 249 247 244 244 244 245 247 249 248 247 245 241 238 234 232 231 229 227 226 226
335 334 333 332 331 330 329 327 325 323 320 318 314 308 303 297 292 286 280 272 264 258 252 247 243 240 239 239 240 242 244 245 245 243 239 234 231 229 227 226 224 223 222
336 335 335 334 333 333 332 330 328 327 325 323 319 314 308 301 295 287 280 273 263 255 250 245 240 235 233 234 236 238 239 241 242 241 236 231 227 224 222 221 220 219 219
338 337 337 336 336 336 335 334 332 331 330 328 326 322 315 308 300 291 281 273 263 253 246 241 237 232 229 229 231 233 233 235 236 237 233 228 222 218 215 215 215 215 215
339 339 339 339 339 339 340 338 338 337 336 335 333 330 326 319 311 299 286 274 262 252 241 234 231 227 225 225 226 227 228 230 233 233 229 223 218 213 209 208 210 210 210
341 341 342 343 343 343 344 344 344 343 343 342 341 341 339 334 326 313 297 278 261 248 235 227 223 221 220 220 220 222 224 226 229 227 222 218 210 206 203 201 203 204 205
343 343 344 345 347 348 349 349 349 349 349 350 350 350 351 351 347 339 325 295 261 240 224 217 213 212 212 213 215 217 220 222 224 222 217 213 206 200 193 193 197 198 200
345 345 347 348 350 351 352 353 353 353 353 354 356 359 1 1 3 2 359 350 279 213 204 202 200 201 202 204 208 213 215 217 218 216 214 207 200 193 187 187 191 193 195
Height
5851 5848 5845 5842 5840 5838 5835 5832 5828 5825 5822 5819 5816 5813 5809 5806 5803 5802 5799 5798 5798 5798 5801 5803 5805 5807 5808 5810 5812 5814 5815 5817 5818 5820 5821 5823 5825 5826 5828 5830 5831 5832 5832
5845 5842 5838 5835 5832 5829 5826 5823 5820 5817 5815 5812 5809 5807 5804 5802 5800 5798 5797 5796 5795 5795 5796 5798 5799 5800 5802 5804 5805 5807 5808 5810 5812 5813 5815 5817 5820 5821 5823 5824 5826 5827 5828
5837 5833 5830 5826 5823 5821 5817 5815 5812 5809 5807 5804 5802 5800 5798 5796 5795 5793 5792 5792 5791 5790 5790 5791 5792 5794 5795 5796 5798 5799 5801 5803 5805 5807 5809 5811 5813 5815 5817 5819 5820 5822 5822
5829 5824 5821 5818 5815 5812 5809 5806 5803 5800 5798 5796 5794 5792 5791 5789 5788 5787 5787 5786 5785 5784 5784 5785 5785 5787 5788 5789 5790 5791 5793 5795 5797 5800 5802 5804 5806 5808 5810 5813 5815 5816 5816
5821 5817 5813 5810 5807 5803 5800 5797 5794 5791 5789 5787 5785 5783 5782 5781 5780 5779 5779 5778 5778 5777 5777 5777 5778 5779 5780 5780 5781 5783 5784 5787 5789 5792 5794 5796 5798 5800 5803 5805 5808 5809 5810
5815 5810 5807 5803 5799 5795 5792 5788 5785 5782 5779 5776 5774 5772 5771 5770 5769 5768 5768 5768 5767 5767 5767 5768 5768 5769 5770 5771 5772 5774 5776 5778 5780 5783 5786 5788 5791 5793 5796 5798 5799 5802 5803
5808 5804 5799 5795 5791 5787 5783 5779 5776 5772 5768 5764 5761 5759 5757 5756 5755 5754 5754 5754 5754 5754 5755 5756 5757 5758 5759 5760 5761 5763 5765 5767 5770 5773 5776 5779 5782 5785 5788 5790 5792 5794 5795
5800 5796 5791 5787 5782 5778 5773 5768 5764 5760 5756 5752 5748 5744 5742 5740 5738 5737 5737 5737 5737 5738 5739 5740 5742 5744 5745 5747 5749 5751 5753 5756 5758 5761 5764 5768 5771 5775 5778 5781 5784 5786 5787
5792 5787 5782 5776 5771 5765 5760 5754 5749 5745 5740 5736 5732 5728 5725 5722 5720 5718 5717 5717 5718 5719 5720 5722 5724 5726 5729 5732 5734 5737 5740 5743 5746 5749 5752 5756 5759 5763 5767 5771 5774 5778 5780
5782 5776 5770 5764 5758 5751 5744 5738 5732 5726 5721 5716 5712 5708 5705 5701 5699 5697 5696 5695 5696 5697 5699 5701 5703 5706 5710 5713 5717 5721 5724 5728 5731 5735 5739 5742 5746 5751 5755 5760 5764 5767 5771
5772 5764 5757 5749 5742 5735 5727 5720 5714 5707 5701 5696 5691 5687 5683 5680 5677 5675 5673 5672 5672 5673 5675 5678 5681 5685 5689 5693 5697 5701 5706 5710 5715 5719 5724 5728 5733 5737 5742 5747 5752 5756 5760
5759 5751 5743 5735 5727 5719 5711 5704 5696 5689 5683 5677 5672 5668 5664 5660 5657 5655 5653 5652 5652 5652 5653 5655 5658 5662 5666 5671 5676 5681 5686 5691 5696 5702 5707 5713 5718 5723 5728 5734 5739 5744 5749
5748 5739 5730 5722 5713 5704 5696 5687 5680 5672 5665 5659 5654 5649 5646 5643 5640 5638 5636 5635 5634 5634 5634 5635 5637 5640 5643 5648 5653 5659 5664 5670 5676 5682 5689 5695 5702 5708 5714 5720 5726 5731 5737
5737 5728 5719 5709 5700 5690 5681 5673 5664 5656 5648 5642 5636 5631 5628 5625 5623 5621 5619 5619 5618 5618 5618 5618 5619 5621 5623 5627 5631 5636 5642 5648 5655 5662 5670 5677 5685 5692 5699 5705 5712 5718 5725
5728 5718 5707 5697 5688 5678 5668 5659 5650 5641 5632 5625 5619 5613 5609 5606 5604 5603 5602 5602 5602 5602 5603 5603 5604 5605 5607 5610 5612 5616 5621 5627 5634 5641 5649 5658 5667 5675 5683 5691 5698 5705 5712
5717 5707 5696 5686 5676 5666 5656 5646 5636 5626 5617 5608 5601 5595 5590 5587 5584 5583 5583 5583 5584 5585 5586 5588 5590 5591 5593 5595 5597 5600 5604 5609 5614 5621 5629 5639 5649 5658 5667 5676 5684 5692 5700
5707 5696 5686 5675 5664 5654 5643 5633 5622 5611 5601 5591 5583 5576 5570 5567 5564 5563 5562 5563 5564 5566 5569 5572 5575 5578 5580 5582 5585 5587 5590 5593 5598 5603 5611 5620 5630 5641 5651 5661 5670 5679 5687
5697 5686 5676 5665 5654 5643 5631 5620 5608 5597 5586 5576 5566 5559 5552 5548 5545 5543 5543 5543 5545 5547 5551 5555 5559 5563 5567 5570 5573 5575 5578 5581 5584 5589 5595 5603 5613 5624 5635 5646 5657 5667 5676
5687 5677 5666 5655 5643 5632 5620 5608 5595 5583 5572 5561 5551 5543 5536 5531 5527 5525 5524 5525 5526 5529 5533 5538 5543 5548 5553 5557 5561 5564 5568 5570 5573 5577 5582 5589 5599 5610 5621 5633 5644 5655 5664
5679 5668 5657 5646 5634 5622 5609 5597 5584 5571 5559 5547 5537 5528 5520 5515 5511 5508 5507 5507 5509 5513 5517 5522 5528 5534 5540 5545 5550 5554 5558 5561 5564 5567 5572 5578 5587 5596 5607 5619 5631 5643 5653
5671 5660 5649 5638 5626 5613 5600 5587 5573 5560 5548 5535 5524 5514 5506 5500 5496 5493 5492 5492 5494 5498 5502 5508 5514 5521 5527 5534 5539 5544 5548 5552 5555 5558 5562 5568 5576 5585 5596 5608 5620 5631 5642
5665 5654 5643 5631 5618 5605 5591 5578 5564 5551 5537 5525 5513 5503 5495 5488 5483 5480 5480 5480 5481 5484 5489 5495 5501 5508 5515 5522 5529 5534 5539 5544 5547 5550 5554 5559 5567 5576 5587 5598 5610 5621 5632
5659 5648 5637 5625 5612 5598 5584 5570 5556 5543 5529 5516 5505 5495 5486 5479 5474 5471 5470 5469 5471 5474 5478 5484 5490 5498 5505 5513 5519 5526 5531 5536 5540 5543 5547 5552 5559 5568 5579 5590 5601 5612 5624
5654 5643 5632 5620 5607 5593 5578 5564 5550 5536 5523 5511 5499 5489 5481 5474 5468 5465 5463 5462 5463 5466 5470 5476 5482 5490 5497 5505 5512 5518 5524 5529 5533 5537 5541 5547 5553 5561 5572 5583 5594 5605 5617
5650 5639 5627 5615 5602 5589 5575 5560 5546 5533 5520 5508 5497 5488 5479 5473 5467 5462 5460 5459 5459 5461 5465 5470 5477 5484 5492 5499 5506 5512 5518 5523 5527 5532 5537 5542 5548 5555 5565 5577 5588 5599 5611
5646 5635 5624 5612 5599 5586 5572 5558 5544 5531 5519 5508 5497 5489 5481 5474 5469 5464 5461 5459 5459 5461 5464 5469 5475 5481 5489 5495 5502 5508 5514 5518 5523 5528 5532 5537 5543 5551 5561 5572 5584 5595 5606